This is the latest recevied weather packets stored in our database for station/object CE3TDM-12. If no packets are shown the sender has not sent any weather packets the latest 10 day(s).
| Time | Temp. | Humidity | Pressure | Rain* | Wind** | Luminosity | Snow |
|---|---|---|---|---|---|---|---|
| 1787978212 | 1.67° C | 53% | 775.4 hPa | - | - | - | - |
| 1787977911 | 1.67° C | 52% | 775.5 hPa | - | - | - | - |
| 1787977610 | 1.67° C | 52% | 775.3 hPa | - | - | - | - |
| 1787977308 | 1.67° C | 52% | 775.5 hPa | - | - | - | - |
| 1787977007 | 1.11° C | 52% | 774.8 hPa | - | - | - | - |
| 1787976707 | 1.67° C | 52% | 775.5 hPa | - | - | - | - |
| 1787976407 | 2.22° C | 52% | 775.5 hPa | - | - | - | - |
| 1787976106 | 2.22° C | 52% | 775.6 hPa | - | - | - | - |
| 1787975806 | 2.22° C | 52% | 775.7 hPa | - | - | - | - |
| 1787975505 | 2.22° C | 52% | 775.7 hPa | - | - | - | - |
| 1787975205 | 2.22° C | 52% | 775.7 hPa | - | - | - | - |
| 1787974904 | 2.22° C | 52% | 775.7 hPa | - | - | - | - |
| 1787974604 | 2.22° C | 52% | 775.8 hPa | - | - | - | - |
| 1787974303 | 2.78° C | 52% | 775.8 hPa | - | - | - | - |
| 1787974003 | 2.78° C | 52% | 775.9 hPa | - | - | - | - |
| 1787973702 | 3.33° C | 52% | 775.9 hPa | - | - | - | - |
| 1787973402 | 3.33° C | 51% | 776 hPa | - | - | - | - |
| 1787973101 | 3.33° C | 52% | 775.9 hPa | - | - | - | - |
| 1787972801 | 3.33° C | 51% | 776 hPa | - | - | - | - |
| 1787972501 | 3.33° C | 52% | 776 hPa | - | - | - | - |
| 1787972200 | 3.33° C | 52% | 776.1 hPa | - | - | - | - |
| 1787971899 | 3.33° C | 52% | 776 hPa | - | - | - | - |
| 1787971598 | 2.78° C | 52% | 776.1 hPa | - | - | - | - |
| 1787971297 | 3.33° C | 52% | 776.2 hPa | - | - | - | - |
| 1787970997 | 3.33° C | 51% | 776.2 hPa | - | - | - | - |
* Rain since midnight (hover to see other rain measurements)
** Current wind speed in m/s (hover to see current wind gust speed)